Tracking 25995 objects as of 20-Aug-2022
HD Live streaming from Space Station
objects crossing your sky now

XJS H

Track XJS H now!
10-day predictions


NORAD ID: 45612
Int'l Code: 2020-032B
Perigee: 456.1 km
Apogee: 468.8 km
Inclination: 35.0 °
Period: 93.7 minutes
Semi major axis: 6833 km
RCS: Unknown
Launch date: May 29, 2020
Source: People's Republic of China (PRC)
Launch site: Xichang Space Center, China (XSC)
aabbcc
Your satellite tracking list
Your tracking list is empty




NASA's NSSDC Master Catalog

Two Line Element Set (TLE):
1 45612U 20032B   22231.83286579  .00013747  00000-0  37096-3 0  9993
2 45612  35.0352  41.4988 0009303 292.5993  67.3742 15.36887800124480
Source of the keplerian elements: AFSPC